Location: Unspecified
(17.6330°N, 0.0000°E)
Time: 02:37:50
(UTC+00:00)

A-11 Canister half - Pass Details

Date: 24 June 2019
Orbit: 1515 x 1685 km, 47.2° (Epoch: 15 July)

Event Time Altitude Azimuth Distance (km) Brightness Sun altitude
Rises 08:29:13 0° 230° (SW) 4,930 11.2 40.0°
Reaches altitude 10° 08:32:26 10° 233° (SW) 3,941 10.8 40.8°
Maximum altitude 08:42:30 67° 314° (NW) 1,778 9.9 43.1°
Drops below altitude 10° 08:52:24 10° 37° (NE) 3,867 11.8 45.3°
Sets 08:55:32 0° 40° (NE) 4,832 12.2 46.1°
